Location: El Bakhil
(32.7726°N, 5.5387°W)
Time: 04:10:09
(UTC+00:00)

Cosmos 1844 - Pass Details

Date: 03 March 2021
Orbit: 822 x 868 km, 70.9° (Epoch: 12 April)

Event Time Altitude Azimuth Distance (km) Brightness Sun altitude
Rises 20:20:33 0° 339° (NNW) 3,445 7.3 -25.8°
Reaches altitude 10° 20:23:02 10° 339° (NNW) 2,499 6.5 -26.4°
Maximum altitude 20:28:47 90° 279° (W) 857 3.6 -27.5°
Enters shadow 20:29:04 82° 162° (SSE) 863 3.6 -27.6°
